CAPE
1735 1798 1813 1573 1552 1493 1433 1431 1314 1082 913 1010 1270 1439 1495 1490 1517 1576 1559 1620 1615 1550 1303 1273 988 824 690 657 543 556 1088 1095
1925 1777 1886 1979 2020 1697 1520 1459 1406 1229 1147 1030 1107 1262 1398 1405 1482 1620 1605 1601 1746 1810 1706 1427 1091 805 704 624 580 643 1067 1089
1888 2001 1907 1918 1923 1892 1694 1580 1501 1487 1482 1394 1329 1585 1625 1562 1502 1631 1842 1878 1997 1837 1472 1259 992 736 649 585 587 1025 1197 1090
1692 2008 2041 1877 1828 1892 1997 2050 1996 1944 1906 1938 1907 1803 1775 1726 1672 1493 1663 1793 1850 1803 1488 1228 956 1077 887 595 865 1038 1117 1058
1227 1956 2094 2082 1960 1902 1816 1710 1902 1931 1918 1958 2012 1850 1607 1647 1711 1590 1640 1560 1908 1891 1687 1574 1646 1486 1206 1000 985 1016 936 1064
271 1813 2116 2077 2065 1996 1737 1561 1694 1753 1795 1867 1801 1944 1693 1533 1509 1597 1627 1539 1594 1841 1904 1826 1760 1686 1485 1230 1044 877 812 900
0 315 420 769 1799 1813 1794 1578 1519 1539 1488 1352 1448 1747 1638 1449 1591 1471 1362 1455 1603 1566 1603 1383 1280 1299 1344 1229 1114 846 776 736
0 0 0 467 1100 1407 1482 1308 1267 1349 1442 1283 1276 1378 1517 1509 1449 1347 1212 1195 1058 1504 1353 1329 1383 1236 1199 1090 1061 1041 912 831
0 0 0 0 0 14 157 191 314 427 334 332 845 1463 1526 1415 1307 1194 1185 1080 812 1017 1017 970 1480 1197 990 1020 1007 1073 1009 871
0 0 0 0 0 0 0 0 0 0 0 3 4 2 27 704 854 779 524 483 627 719 795 960 1111 1168 1147 1016 946 820 1051 1112
0 0 0 0 0 0 0 0 0 0 0 0 0 0 0 0 47 331 204 74 218 418 146 223 812 743 790 807 807 821 942 1045
0 0 0 0 0 0 0 0 0 0 0 0 0 0 0 0 0 0 4 63 178 83 2 4 415 962 850 791 759 783 716 638
0 0 0 0 0 0 0 0 0 0 0 0 0 0 0 0 0 0 0 2 3 27 115 62 46 165 148 176 327 522 495 415
0 0 0 0 0 0 0 0 0 0 0 0 0 0 0 0 0 0 0 0 0 1 2 4 3 69 79 140 54 147 179 250
0 0 0 0 0 0 0 0 0 0 0 0 0 0 0 0 0 0 0 0 0 0 2 2 9 40 41 67 78 66 72 103
0 0 0 0 0 0 0 0 0 0 0 0 0 0 0 0 0 0 0 0 0 0 0 2 2 2 54 38 28 50 26 41
0 0 0 0 0 0 0 0 0 0 0 0 0 0 1 2 3 1 1 1 0 3 0 0 1 3 3 40 6 8 37 82
0 0 0 0 0 0 0 0 0 0 0 0 0 0 0 1 0 0 0 1 0 1 0 0 1 1 2 3 7 10 0 57
0 0 0 0 0 0 1 0 1 1 1 1 1 0 0 1 3 0 0 2 4 2 2 2 0 0 1 1 2 2 32 27
0 0 0 0 0 1 1 3 0 2 3 2 2 2 1 1 1 1 1 1 2 4 4 4 4 1 1 2 2 0 0 35
CIN
-199 -189 -186 -198 -181 -165 -166 -164 -171 -194 -218 -196 -147 -114 -101 -91 -88 -77 -70 -50 -42 -46 -60 -63 -85 -87 -102 -127 -140 -125 -49 -46
-164 -188 -171 -152 -138 -153 -150 -132 -122 -138 -148 -178 -158 -125 -89 -77 -67 -52 -56 -50 -26 -17 -26 -46 -71 -85 -95 -114 -121 -116 -54 -50
-134 -142 -158 -152 -139 -120 -130 -128 -116 -101 -84 -83 -79 -53 -44 -41 -41 -38 -24 -20 -9 -7 -18 -37 -55 -76 -78 -97 -106 -60 -47 -53
-107 -123 -134 -150 -145 -124 -104 -91 -73 -62 -53 -39 -29 -29 -24 -21 -23 -43 -24 -13 -13 -7 -8 -15 -26 -17 -37 -71 -55 -50 -53 -62
-76 -113 -120 -124 -117 -112 -115 -110 -83 -64 -52 -35 -19 -26 -41 -30 -21 -18 -1 -4 -0 -0 -1 -0 -0 -4 -15 -29 -32 -41 -53 -62
-201 -123 -118 -123 -107 -91 -101 -116 -89 -73 -51 -36 -28 -9 -26 -42 -37 -26 -18 -9 -0 -0 -0 -0 -1 -1 -7 -20 -28 -33 -44 -64
-0 -326 -239 -188 -81 -76 -66 -78 -64 -64 -63 -57 -42 -9 -13 -22 -15 -14 -16 -5 -4 -5 -2 -23 -34 -27 -31 -28 -23 -47 -48 -64
-0 -0 -0 -236 -102 -64 -46 -55 -52 -41 -35 -56 -64 -26 -9 -8 -6 -2 -5 -47 -59 -12 -10 -17 -15 -32 -35 -44 -45 -45 -47 -52
-0 -0 -0 -0 -0 -177 -281 -237 -157 -92 -101 -122 -59 -4 -2 -8 -18 -21 -39 -10 -82 -20 -26 -5 -0 -7 -24 -38 -46 -38 -49 -52
-0 -0 -0 -0 -0 -0 -0 -0 -0 -0 -0 -0 -0 -0 -144 -47 -45 -97 -124 -144 -107 -6 -7 -4 -2 -0 -2 -11 -24 -46 -32 -26
-0 -0 -0 -0 -0 -0 -0 -0 -0 -0 -0 -0 -0 -0 -0 -0 -99 -100 -135 -179 -73 -85 -65 -31 -0 -5 -6 -35 -20 -15 -19 -24
-0 -0 -0 -0 -0 -0 -0 -0 -0 -0 -0 -0 -0 -0 -0 -0 -0 -0 -53 -160 -86 -110 -16 -74 -0 -0 -17 -35 -34 -19 -44 -47
-0 -0 -0 -0 -0 -0 -0 -0 -0 -0 -0 -0 -0 -0 -0 -0 -0 -0 -0 -0 -0 -106 -46 -77 -62 -43 -21 -29 -52 -49 -24 -130
-0 -0 -0 -0 -0 -0 -0 -0 -0 -0 -0 -0 -0 -0 -0 -0 -0 -0 -0 -0 -0 -0 -0 -0 -0 -69 -27 -12 -43 -33 -87 -149
-0 -0 -0 -0 -0 -0 -0 -0 -0 -0 -0 -0 -0 -0 -0 -0 -0 -0 -0 -0 -0 -0 -0 -0 -36 -74 -137 -36 -9 -5 -26 -82
-0 -0 -0 -0 -0 -0 -0 -0 -0 -0 -0 -0 -0 -0 -0 -0 -0 -0 -0 -0 -0 -0 -0 -0 -0 -0 -60 -54 -50 -16 -8 -17
-0 -0 -0 -0 -0 -0 -0 -0 -0 -0 -0 -0 -0 -0 -0 -0 -0 -0 -0 -0 -0 -0 -0 -0 -0 -0 -0 -47 -4 -18 -8 -4
-0 -0 -0 -0 -0 -0 -0 -0 -0 -0 -0 -0 -0 -0 -0 -0 -0 -0 -0 -0 -0 -0 -0 -0 -0 -0 -0 -0 -0 -0 -0 -0
-0 -0 -0 -0 -0 -0 -0 -0 -0 -0 -0 -0 -0 -0 -0 -0 -0 -0 -0 -0 -0 -0 -0 -0 -0 -0 -0 -0 -0 -0 -1 -0
-0 -0 -0 -0 -0 -0 -0 -0 -0 -0 -0 -0 -0 -0 -0 -0 -0 -0 -0 -0 -0 -0 -0 -0 -0 -0 -0 -0 -0 -0 -0 -0
Wind_Speed
14 11 10 9 8 7 6 5 5 5 5 5 4 4 3 2 1 0 1 2 3 3 3 4 4 5 6 6 5 5 8 9
16 14 12 12 13 11 10 9 8 7 7 7 6 6 6 5 5 4 3 2 3 3 3 3 3 4 6 5 6 6 8 9
17 15 12 12 13 14 12 11 11 11 12 12 11 10 9 9 9 9 7 6 5 5 5 5 6 7 7 7 7 8 8 9
17 16 15 15 15 15 14 14 13 12 13 14 13 13 13 14 13 12 12 11 10 10 10 11 10 12 11 10 11 11 10 10
21 19 17 17 17 16 17 17 16 16 15 16 17 17 16 16 17 16 16 15 17 16 16 14 13 13 13 12 12 12 14 14
27 26 25 22 20 19 20 19 19 18 18 16 17 17 17 17 19 18 20 20 20 20 19 18 19 17 17 16 16 16 17 18
28 28 28 27 25 24 23 21 21 21 19 18 17 18 18 19 19 19 17 19 26 24 24 22 21 21 20 19 19 18 19 21
25 26 27 26 25 24 25 25 24 21 20 18 16 17 19 21 21 20 20 16 21 30 27 26 25 24 23 22 20 20 20 20
25 25 26 25 25 24 23 23 23 22 21 20 19 19 19 20 21 19 22 23 21 25 31 29 28 27 27 25 24 23 22 22
25 26 26 26 25 24 22 22 21 22 22 21 23 23 24 24 24 24 25 24 23 25 31 29 30 19 26 26 26 26 27 27
27 27 27 26 25 23 22 22 21 21 21 21 23 23 25 26 28 31 33 30 25 23 32 33 30 22 22 23 25 27 28 28
27 27 28 27 25 23 22 23 22 22 22 24 26 27 27 27 28 30 32 31 29 26 30 27 27 22 22 25 26 26 22 25
29 29 29 28 28 27 27 28 25 24 25 27 28 30 31 31 31 32 32 31 30 31 33 31 33 32 32 34 30 26 26 29
29 29 29 29 28 29 27 29 27 26 28 29 30 32 33 33 33 32 32 33 33 31 32 34 35 31 33 34 37 34 30 31
29 29 29 29 29 29 29 28 30 31 34 34 34 34 34 35 35 34 34 33 34 34 33 34 36 33 29 31 33 34 28 25
28 29 30 31 31 31 31 32 35 36 36 36 37 35 37 36 37 37 37 36 36 36 35 36 37 39 34 30 30 27 26 26
29 30 31 32 32 32 32 33 34 36 38 39 38 37 36 37 36 38 39 39 38 39 39 37 37 38 38 34 32 30 29 34
31 32 32 33 33 33 33 35 36 37 38 38 39 39 38 37 37 38 38 38 38 39 41 41 39 39 39 38 36 33 34 36
32 32 33 33 34 35 35 36 36 37 38 39 41 40 40 40 42 40 40 40 39 38 40 41 41 41 40 41 40 38 37 35
32 34 34 35 35 34 34 35 35 36 39 38 39 40 41 42 43 44 43 43 42 40 40 40 41 43 44 43 42 42 38 37
Wind_Direction
342 344 342 339 336 330 316 302 287 268 258 247 243 237 236 225 210 52 45 50 56 55 48 43 39 14 6 13 28 26 0 358
332 331 333 330 326 323 320 310 298 285 277 265 258 259 261 260 273 289 298 317 336 346 3 21 24 356 350 355 359 355 346 343
325 326 329 328 326 323 319 313 305 298 294 288 284 281 277 275 276 287 288 295 302 311 319 326 329 331 331 335 339 336 336 334
322 320 320 321 320 320 321 317 311 302 294 290 283 282 282 283 284 281 284 289 290 297 302 308 313 316 319 319 319 321 321 323
314 315 315 315 315 315 314 313 312 306 297 290 287 284 282 282 284 285 287 288 291 290 294 297 299 304 307 310 312 313 311 311
305 303 303 307 311 311 310 307 307 306 302 294 287 284 283 281 283 283 283 284 286 287 287 289 291 294 298 300 301 304 305 302
308 308 303 302 303 306 306 306 305 303 302 300 293 287 284 285 285 284 283 285 282 282 283 284 284 287 290 292 295 297 298 298
320 316 313 312 309 308 307 304 305 304 302 301 299 294 288 286 286 286 287 283 286 279 280 282 282 282 285 286 289 292 294 294
327 324 322 318 315 315 315 313 311 307 307 306 304 300 295 291 287 285 287 291 290 288 282 280 281 283 281 284 286 287 289 290
331 329 324 322 322 323 321 318 317 315 314 312 308 304 302 296 295 287 289 293 289 285 283 281 278 276 280 284 286 286 285 286
330 333 329 325 323 326 329 329 325 319 318 318 318 314 311 307 299 293 293 291 290 273 274 290 276 272 276 282 286 286 285 284
333 331 330 328 326 321 323 326 325 324 320 315 314 313 311 309 307 306 302 296 290 279 270 273 279 273 280 285 283 284 283 283
331 329 328 326 322 317 313 312 312 315 315 314 312 311 309 308 308 307 306 301 295 287 281 280 280 281 284 284 286 283 278 281
334 332 330 328 324 319 313 311 310 310 309 309 309 307 307 306 305 305 305 301 297 292 286 282 281 279 278 281 283 282 280 274
338 337 335 333 328 324 319 312 310 306 304 303 304 306 304 304 304 303 302 301 296 294 290 285 282 282 277 281 285 281 283 275
339 336 333 331 328 323 319 314 305 304 303 303 302 305 304 303 301 301 300 299 295 292 290 288 286 282 282 276 274 283 282 271
337 333 330 328 325 324 321 316 313 307 304 301 301 303 304 304 304 302 300 297 295 291 288 286 285 283 280 279 275 268 272 274
334 332 327 324 325 321 319 316 312 308 307 303 302 303 302 304 302 303 301 299 297 294 289 285 283 282 280 279 276 272 262 269
339 337 337 331 324 320 316 316 315 310 309 302 299 301 299 298 296 299 298 299 298 296 291 286 282 279 278 275 274 274 269 272
339 336 334 335 333 329 322 323 323 317 307 308 303 300 302 297 296 298 298 296 295 294 291 288 283 278 275 273 273 271 272 271